Check out our new BloomSky Weather System.

Active alerts


No alerts


Thunder radar  blitzortung!


Rain radar more information rain snow radar


Visit our other weather sites:

Template documentation
and downloads

And another site



Weather Underground History page Text

Daily Summary for January 1, 2017 Units:  Metric    English   Both
« Previous Day
Next Day »
Daily Weekly Monthly Yearly Custom
  High: Low: Average:
Temperature: 23.9 °C 18.1 °C 19.9 °C
Dew Point: 20.5 °C 17.8 °C 18.7 °C
Humidity: 99 % 76 % 93 %
Wind Speed: 11.3 km/h 0 km/h 0.8 km/h
Wind Gust: 12.9 km/h - -
Wind:- - SE
Pressure: 1013.1 hPa 1008.7 hPa -
Precipitation: 0 mm    
Historical Graphs
 
 
Tabular Data for January 1, 2017
Time Temperature Dew Point Pressure Wind Wind Speed Wind Gust Humidity Rainfall Rate (Hourly)
00:01 18.8 °C 18.3 °C 1010 hPa Calm   3.2 km/h 97 % 0 mm
00:06 18.8 °C 18.3 °C 1010 hPa Calm   3.2 km/h 97 % 0 mm
00:11 18.7 °C 18.2 °C 1010 hPa Calm   3.2 km/h 97 % 0 mm
00:16 18.7 °C 18.2 °C 1010 hPa Calm   1.6 km/h 97 % 0 mm
00:21 18.7 °C 18.2 °C 1010 hPa Calm     97 % 0 mm
00:26 18.7 °C 18.2 °C 1010 hPa Calm     97 % 0 mm
00:31 18.7 °C 18.2 °C 1010.4 hPa Calm     97 % 0 mm
00:36 18.6 °C 18.1 °C 1010.4 hPa Calm     97 % 0 mm
00:41 18.6 °C 18.1 °C 1010 hPa Calm     97 % 0 mm
00:46 18.6 °C 18.3 °C 1010 hPa Calm     98 % 0 mm
00:51 18.6 °C 18.3 °C 1010 hPa Calm     98 % 0 mm
00:56 18.6 °C 18.3 °C 1010 hPa Calm     98 % 0 mm
01:01 18.6 °C 18.3 °C 1010 hPa Calm     98 % 0 mm
01:06 18.6 °C 18.3 °C 1010 hPa Calm     98 % 0 mm
01:11 18.6 °C 18.3 °C 1010 hPa Calm     98 % 0 mm
01:16 18.6 °C 18.3 °C 1010 hPa Calm     98 % 0 mm
01:21 18.6 °C 18.3 °C 1010 hPa Calm   1.6 km/h 98 % 0 mm
01:26 18.6 °C 18.3 °C 1010 hPa Calm   1.6 km/h 98 % 0 mm
01:31 18.6 °C 18.3 °C 1010 hPa Calm   1.6 km/h 98 % 0 mm
01:36 18.6 °C 18.3 °C 1010 hPa WSW 1.6 km/h 1.6 km/h 98 % 0 mm
01:41 18.6 °C 18.3 °C 1010.4 hPa WSW 1.6 km/h 1.6 km/h 98 % 0 mm
01:46 18.6 °C 18.3 °C 1010.4 hPa Calm   1.6 km/h 98 % 0 mm
01:52 18.6 °C 18.3 °C 1010.4 hPa Calm   1.6 km/h 98 % 0 mm
01:57 18.6 °C 18.3 °C 1010.4 hPa Calm   1.6 km/h 98 % 0 mm
02:02 18.6 °C 18.3 °C 1010 hPa Calm   1.6 km/h 98 % 0 mm
02:07 18.6 °C 18.3 °C 1010.4 hPa Calm   1.6 km/h 98 % 0 mm
02:12 18.6 °C 18.3 °C 1010 hPa Calm   1.6 km/h 98 % 0 mm
02:17 18.5 °C 18.2 °C 1010 hPa Calm   1.6 km/h 98 % 0 mm
02:22 18.5 °C 18.2 °C 1010 hPa Calm   1.6 km/h 98 % 0 mm
02:27 18.4 °C 18.1 °C 1010 hPa Calm   1.6 km/h 98 % 0 mm
02:32 18.4 °C 18.1 °C 1010 hPa Calm   1.6 km/h 98 % 0 mm
02:37 18.3 °C 18 °C 1010 hPa Calm     98 % 0 mm
02:42 18.3 °C 18 °C 1010.4 hPa Calm     98 % 0 mm
02:47 18.3 °C 18 °C 1010.4 hPa Calm     98 % 0 mm
02:52 18.3 °C 18 °C 1010.4 hPa Calm     98 % 0 mm
02:57 18.3 °C 18 °C 1010.4 hPa Calm     98 % 0 mm
03:02 18.3 °C 18 °C 1010 hPa Calm     98 % 0 mm
03:07 18.3 °C 18 °C 1010 hPa Calm   1.6 km/h 98 % 0 mm
03:12 18.3 °C 18 °C 1010 hPa Calm   1.6 km/h 98 % 0 mm
03:17 18.3 °C 18 °C 1010.4 hPa Calm   1.6 km/h 98 % 0 mm
03:22 18.4 °C 18.1 °C 1010.4 hPa Calm     98 % 0 mm
03:27 18.4 °C 18.1 °C 1010 hPa Calm     98 % 0 mm
03:32 18.4 °C 18.1 °C 1010 hPa Calm     98 % 0 mm
03:37 18.4 °C 18.1 °C 1010 hPa Calm     98 % 0 mm
03:42 18.4 °C 18.1 °C 1010 hPa Calm     98 % 0 mm
03:47 18.4 °C 18.1 °C 1010 hPa Calm     98 % 0 mm
03:52 18.4 °C 18.1 °C 1010.4 hPa Calm     98 % 0 mm
03:57 18.4 °C 18.1 °C 1010.4 hPa Calm     98 % 0 mm
04:02 18.4 °C 18.1 °C 1010 hPa Calm     98 % 0 mm
04:07 18.4 °C 18.1 °C 1009.7 hPa East 1.6 km/h 1.6 km/h 98 % 0 mm
04:12 18.4 °C 18.1 °C 1009.7 hPa Calm   1.6 km/h 98 % 0 mm
04:17 18.4 °C 18.1 °C 1010 hPa Calm   1.6 km/h 98 % 0 mm
04:22 18.3 °C 18 °C 1010.7 hPa SW 3.2 km/h 4.8 km/h 98 % 0 mm
04:27 18.3 °C 18 °C 1010.7 hPa Calm   4.8 km/h 98 % 0 mm
04:32 18.3 °C 18 °C 1010.7 hPa Calm   4.8 km/h 98 % 0 mm
04:37 18.3 °C 18 °C 1010.7 hPa SSW 3.2 km/h 4.8 km/h 98 % 0 mm
04:42 18.3 °C 18 °C 1010.7 hPa Calm   3.2 km/h 98 % 0 mm
04:47 18.3 °C 18 °C 1010.7 hPa Calm   3.2 km/h 98 % 0 mm
04:52 18.3 °C 18 °C 1010.7 hPa Calm   3.2 km/h 98 % 0 mm
04:57 18.3 °C 18 °C 1010.7 hPa Calm   4.8 km/h 98 % 0 mm
05:02 18.3 °C 18 °C 1010.7 hPa Calm   4.8 km/h 98 % 0 mm
05:07 18.3 °C 18 °C 1010.4 hPa Calm   4.8 km/h 98 % 0 mm
05:12 18.3 °C 18 °C 1010.4 hPa Calm     98 % 0 mm
05:17 18.2 °C 17.9 °C 1010.7 hPa Calm     98 % 0 mm
05:22 18.2 °C 17.9 °C 1010.4 hPa Calm   1.6 km/h 98 % 0 mm
05:27 18.2 °C 17.9 °C 1010.4 hPa Calm   1.6 km/h 98 % 0 mm
05:32 18.1 °C 17.8 °C 1010.7 hPa Calm   1.6 km/h 98 % 0 mm
05:37 18.1 °C 17.8 °C 1010.7 hPa Calm   1.6 km/h 98 % 0 mm
05:42 18.1 °C 17.8 °C 1010.7 hPa Calm   1.6 km/h 98 % 0 mm
05:47 18.1 °C 17.8 °C 1010.4 hPa Calm     98 % 0 mm
05:52 18.1 °C 17.8 °C 1010.4 hPa Calm   1.6 km/h 98 % 0 mm
05:57 18.1 °C 17.8 °C 1010.4 hPa Calm   1.6 km/h 98 % 0 mm
06:02 18.1 °C 17.8 °C 1010.4 hPa Calm   1.6 km/h 98 % 0 mm
06:07 18.1 °C 17.8 °C 1010.4 hPa Calm   1.6 km/h 98 % 0 mm
06:12 18.1 °C 17.8 °C 1010.4 hPa Calm   1.6 km/h 98 % 0 mm
06:17 18.1 °C 17.8 °C 1010.4 hPa Calm   1.6 km/h 98 % 0 mm
06:22 18.1 °C 17.8 °C 1010.7 hPa Calm   1.6 km/h 98 % 0 mm
06:27 18.1 °C 17.8 °C 1011.1 hPa Calm   1.6 km/h 98 % 0 mm
06:32 18.1 °C 17.8 °C 1011.1 hPa Calm   1.6 km/h 98 % 0 mm
06:37 18.1 °C 17.8 °C 1011.1 hPa Calm   1.6 km/h 98 % 0 mm
06:38 18.1 °C 17.8 °C 1011.1 hPa Calm   1.6 km/h 98 % 0 mm
06:43 18.1 °C 17.8 °C 1010.7 hPa Calm   1.6 km/h 98 % 0 mm
06:48 18.1 °C 17.8 °C 1011.1 hPa ESE 1.6 km/h 1.6 km/h 98 % 0 mm
06:53 18.1 °C 17.8 °C 1011.1 hPa Calm   1.6 km/h 98 % 0 mm
06:58 18.2 °C 17.9 °C 1011.1 hPa Calm   1.6 km/h 98 % 0 mm
07:03 18.1 °C 17.8 °C 1011.1 hPa Calm   1.6 km/h 98 % 0 mm
07:08 18.1 °C 17.8 °C 1011.1 hPa Calm   1.6 km/h 98 % 0 mm
07:13 18.1 °C 17.8 °C 1011.1 hPa Calm   1.6 km/h 98 % 0 mm
07:18 18.1 °C 17.9 °C 1011.4 hPa Calm     99 % 0 mm
07:23 18.1 °C 17.9 °C 1011.4 hPa Calm     99 % 0 mm
07:28 18.1 °C 17.9 °C 1011.4 hPa Calm     99 % 0 mm
07:33 18.1 °C 17.9 °C 1011.4 hPa Calm     99 % 0 mm
07:38 18.1 °C 17.9 °C 1011.7 hPa Calm     99 % 0 mm
07:43 18.1 °C 17.9 °C 1012.1 hPa Calm     99 % 0 mm
07:49 18.2 °C 18 °C 1012.1 hPa Calm   1.6 km/h 99 % 0 mm
07:54 18.2 °C 18 °C 1011.4 hPa Calm   1.6 km/h 99 % 0 mm
07:59 18.2 °C 18 °C 1011.4 hPa Calm   1.6 km/h 99 % 0 mm
08:04 18.2 °C 18 °C 1011.4 hPa Calm   1.6 km/h 99 % 0 mm
08:09 18.3 °C 18.1 °C 1011.1 hPa Calm   1.6 km/h 99 % 0 mm
08:14 18.3 °C 18.1 °C 1011.4 hPa Calm   3.2 km/h 99 % 0 mm
08:19 18.3 °C 18.1 °C 1011.7 hPa Calm   3.2 km/h 99 % 0 mm
08:24 18.3 °C 18.1 °C 1012.1 hPa Calm   3.2 km/h 99 % 0 mm
08:29 18.3 °C 18.1 °C 1012.1 hPa Calm   3.2 km/h 99 % 0 mm
08:34 18.4 °C 18.2 °C 1011.7 hPa Calm   3.2 km/h 99 % 0 mm
08:39 18.4 °C 18.2 °C 1011.7 hPa Calm   3.2 km/h 99 % 0 mm
08:44 18.4 °C 18.2 °C 1012.1 hPa Calm   1.6 km/h 99 % 0 mm
08:49 18.4 °C 18.2 °C 1012.1 hPa Calm     99 % 0 mm
08:54 18.4 °C 18.2 °C 1012.4 hPa Calm     99 % 0 mm
08:59 18.4 °C 18.2 °C 1012.8 hPa Calm   1.6 km/h 99 % 0 mm
09:04 18.4 °C 18.2 °C 1012.4 hPa Calm   1.6 km/h 99 % 0 mm
09:09 18.4 °C 18.2 °C 1012.1 hPa Calm   1.6 km/h 99 % 0 mm
09:14 18.5 °C 18.3 °C 1012.1 hPa Calm   1.6 km/h 99 % 0 mm
09:19 18.5 °C 18.2 °C 1012.1 hPa NW 1.6 km/h 1.6 km/h 98 % 0 mm
09:24 18.5 °C 18.2 °C 1012.4 hPa Calm   3.2 km/h 98 % 0 mm
09:29 18.5 °C 18.2 °C 1012.4 hPa Calm   3.2 km/h 98 % 0 mm
09:34 18.6 °C 18.3 °C 1012.4 hPa Calm   3.2 km/h 98 % 0 mm
09:39 18.6 °C 18.3 °C 1012.8 hPa Calm   3.2 km/h 98 % 0 mm
09:44 18.6 °C 18.3 °C 1013.1 hPa Calm   1.6 km/h 98 % 0 mm
09:49 18.6 °C 18.3 °C 1012.8 hPa Calm   1.6 km/h 98 % 0 mm
09:54 18.7 °C 18.4 °C 1013.1 hPa Calm   1.6 km/h 98 % 0 mm
09:59 18.7 °C 18.4 °C 1013.1 hPa Calm   1.6 km/h 98 % 0 mm
10:04 18.7 °C 18.4 °C 1012.8 hPa Calm   1.6 km/h 98 % 0 mm
10:09 18.9 °C 18.6 °C 1012.8 hPa Calm   1.6 km/h 98 % 0 mm
10:14 19.1 °C 18.8 °C 1012.4 hPa Calm   1.6 km/h 98 % 0 mm
10:19 19.1 °C 18.8 °C 1012.8 hPa Calm   1.6 km/h 98 % 0 mm
10:24 19.2 °C 18.9 °C 1012.8 hPa Calm   1.6 km/h 98 % 0 mm
10:29 19.2 °C 18.9 °C 1012.4 hPa ENE 1.6 km/h 1.6 km/h 98 % 0 mm
10:34 19.3 °C 19 °C 1012.4 hPa Calm   1.6 km/h 98 % 0 mm
10:39 19.4 °C 19.1 °C 1012.4 hPa ESE 3.2 km/h 3.2 km/h 98 % 0 mm
10:44 19.4 °C 18.9 °C 1012.4 hPa SE 1.6 km/h 4.8 km/h 97 % 0 mm
10:49 19.6 °C 19.1 °C 1012.4 hPa Calm   4.8 km/h 97 % 0 mm
10:54 19.6 °C 19.1 °C 1012.4 hPa Calm   4.8 km/h 97 % 0 mm
10:59 19.6 °C 18.9 °C 1012.4 hPa SSE 3.2 km/h 4.8 km/h 96 % 0 mm
11:04 19.7 °C 19 °C 1012.4 hPa ESE 3.2 km/h 4.8 km/h 96 % 0 mm
11:09 19.7 °C 19 °C 1012.4 hPa SSE 3.2 km/h 4.8 km/h 96 % 0 mm
11:14 19.9 °C 19.2 °C 1012.4 hPa South 4.8 km/h 4.8 km/h 96 % 0 mm
11:19 19.9 °C 19.1 °C 1012.4 hPa Calm   6.4 km/h 95 % 0 mm
11:24 20.2 °C 19.4 °C 1012.4 hPa Calm   6.4 km/h 95 % 0 mm
11:29 20.3 °C 19.3 °C 1012.1 hPa Calm   6.4 km/h 94 % 0 mm
11:34 20.4 °C 19.4 °C 1012.1 hPa NNW 1.6 km/h 4.8 km/h 94 % 0 mm
11:39 20.6 °C 19.4 °C 1012.1 hPa East 1.6 km/h 4.8 km/h 93 % 0 mm
11:44 20.7 °C 19.5 °C 1011.7 hPa SE 3.2 km/h 4.8 km/h 93 % 0 mm
11:49 20.9 °C 19.6 °C 1011.7 hPa SE 4.8 km/h 4.8 km/h 92 % 0 mm
11:54 21 °C 19.5 °C 1011.7 hPa SE 11.3 km/h 11.3 km/h 91 % 0 mm
11:59 21.1 °C 19.4 °C 1011.7 hPa SE 4.8 km/h 12.9 km/h 90 % 0 mm
12:04 21.1 °C 19.4 °C 1011.4 hPa South 1.6 km/h 12.9 km/h 90 % 0 mm
12:10 21.1 °C 19.2 °C 1011.4 hPa ESE 3.2 km/h 12.9 km/h 89 % 0 mm
12:15 21.3 °C 19.6 °C 1011.1 hPa Calm   9.7 km/h 90 % 0 mm
12:20 21.5 °C 19.6 °C 1011.1 hPa South 4.8 km/h 9.7 km/h 89 % 0 mm
12:25 21.6 °C 19.5 °C 1011.1 hPa ESE 3.2 km/h 9.7 km/h 88 % 0 mm
12:30 21.7 °C 19.6 °C 1011.1 hPa Calm   6.4 km/h 88 % 0 mm
12:35 21.9 °C 19.6 °C 1010.7 hPa North 1.6 km/h 6.4 km/h 87 % 0 mm
12:40 22.2 °C 19.7 °C 1010.7 hPa Calm   3.2 km/h 86 % 0 mm
12:45 22.3 °C 19.7 °C 1010.7 hPa Calm   3.2 km/h 85 % 0 mm
12:50 22.7 °C 20.2 °C 1010.4 hPa Calm   3.2 km/h 86 % 0 mm
12:55 23.1 °C 20.2 °C 1010.4 hPa ENE 4.8 km/h 4.8 km/h 84 % 0 mm
13:00 23 °C 20 °C 1010.4 hPa ESE 3.2 km/h 6.4 km/h 83 % 0 mm
13:05 22.9 °C 19.7 °C 1010 hPa NNW 1.6 km/h 6.4 km/h 82 % 0 mm
13:10 22.9 °C 19.7 °C 1010 hPa Calm   6.4 km/h 82 % 0 mm
13:15 23 °C 19.8 °C 1010 hPa South 1.6 km/h 6.4 km/h 82 % 0 mm
13:20 23.2 °C 20 °C 1010 hPa SW 1.6 km/h 6.4 km/h 82 % 0 mm
13:25 23.6 °C 20.5 °C 1009.7 hPa Calm   6.4 km/h 83 % 0 mm
13:30 23.6 °C 19.9 °C 1009.7 hPa SE 3.2 km/h 8 km/h 80 % 0 mm
13:35 23.3 °C 19.9 °C 1009.4 hPa ENE 3.2 km/h 8 km/h 81 % 0 mm
13:40 23.3 °C 20.2 °C 1009.4 hPa East 3.2 km/h 8 km/h 83 % 0 mm
13:45 23.4 °C 20.1 °C 1009.4 hPa East 4.8 km/h 8 km/h 82 % 0 mm
13:50 23.4 °C 20 °C 1009.4 hPa NNE 1.6 km/h 8 km/h 81 % 0 mm
13:55 23.3 °C 19.9 °C 1009.4 hPa ESE 9.7 km/h 9.7 km/h 81 % 0 mm
14:00 23.2 °C 20 °C 1009.4 hPa Calm   11.3 km/h 82 % 0 mm
14:05 23.3 °C 20.1 °C 1009 hPa ESE 3.2 km/h 11.3 km/h 82 % 0 mm
14:10 23.5 °C 20.2 °C 1009 hPa East 6.4 km/h 11.3 km/h 82 % 0 mm
14:15 23.5 °C 20 °C 1009.4 hPa Calm   8 km/h 81 % 0 mm
14:20 23.4 °C 19.8 °C 1009.4 hPa SSE 4.8 km/h 8 km/h 80 % 0 mm
14:25 23.3 °C 19.9 °C 1009 hPa Calm   8 km/h 81 % 0 mm
14:30 23.3 °C 19.9 °C 1009 hPa SE 3.2 km/h 6.4 km/h 81 % 0 mm
14:35 23.3 °C 19.9 °C 1009 hPa ESE 8 km/h 8 km/h 81 % 0 mm
14:40 23.2 °C 19.8 °C 1009 hPa SE 3.2 km/h 8 km/h 81 % 0 mm
14:45 23.2 °C 20 °C 1009 hPa SE 1.6 km/h 8 km/h 82 % 0 mm
14:50 23.4 °C 20 °C 1009 hPa SSE 3.2 km/h 8 km/h 81 % 0 mm
14:55 23.4 °C 19.8 °C 1009 hPa NW 1.6 km/h 6.4 km/h 80 % 0 mm
15:00 23.5 °C 19.8 °C 1009 hPa ESE 1.6 km/h 6.4 km/h 80 % 0 mm
15:05 23.6 °C 19.7 °C 1009 hPa ESE 3.2 km/h 4.8 km/h 79 % 0 mm
15:10 23.6 °C 19.7 °C 1009 hPa ESE 4.8 km/h 6.4 km/h 79 % 0 mm
15:15 23.6 °C 19.7 °C 1009 hPa Calm   6.4 km/h 79 % 0 mm
15:20 23.7 °C 19.6 °C 1009 hPa Calm   6.4 km/h 78 % 0 mm
15:25 23.7 °C 19.6 °C 1009 hPa Calm   6.4 km/h 78 % 0 mm
15:31 23.9 °C 19.8 °C 1008.7 hPa Calm   4.8 km/h 78 % 0 mm
15:36 23.9 °C 19.6 °C 1009 hPa ESE 3.2 km/h 3.2 km/h 77 % 0 mm
15:41 23.8 °C 19.5 °C 1009 hPa ESE 1.6 km/h 3.2 km/h 77 % 0 mm
15:46 23.8 °C 19.7 °C 1009 hPa Calm   3.2 km/h 78 % 0 mm
15:51 23.9 °C 19.6 °C 1009.4 hPa SE 3.2 km/h 3.2 km/h 77 % 0 mm
15:56 23.9 °C 19.4 °C 1009.4 hPa Calm   4.8 km/h 76 % 0 mm
16:01 23.8 °C 19.3 °C 1009.4 hPa South 3.2 km/h 4.8 km/h 76 % 0 mm
16:06 23.7 °C 19.4 °C 1009.4 hPa South 3.2 km/h 4.8 km/h 77 % 0 mm
16:11 23.6 °C 19.5 °C 1009.7 hPa SSW 1.6 km/h 4.8 km/h 78 % 0 mm
16:16 23.4 °C 19.3 °C 1009.7 hPa South 1.6 km/h 6.4 km/h 78 % 0 mm
16:21 23.3 °C 19.5 °C 1009.7 hPa South 3.2 km/h 6.4 km/h 79 % 0 mm
16:26 23.3 °C 19.7 °C 1009.7 hPa ESE 6.4 km/h 6.4 km/h 80 % 0 mm
16:31 23.1 °C 19.5 °C 1009.7 hPa SE 6.4 km/h 6.4 km/h 80 % 0 mm
16:36 23.1 °C 19.5 °C 1009.7 hPa SE 1.6 km/h 6.4 km/h 80 % 0 mm
16:41 22.9 °C 19.3 °C 1009.7 hPa SSE 4.8 km/h 6.4 km/h 80 % 0 mm
16:46 22.9 °C 19.5 °C 1009.7 hPa SSW 1.6 km/h 6.4 km/h 81 % 0 mm
16:51 22.8 °C 19.4 °C 1009.7 hPa Calm   6.4 km/h 81 % 0 mm
16:56 22.7 °C 19.5 °C 1009.7 hPa SE 3.2 km/h 6.4 km/h 82 % 0 mm
17:01 22.6 °C 19.4 °C 1009.7 hPa Calm   3.2 km/h 82 % 0 mm
17:06 22.6 °C 19.6 °C 1010 hPa Calm   3.2 km/h 83 % 0 mm
17:11 22.4 °C 19.4 °C 1009.7 hPa Calm   3.2 km/h 83 % 0 mm
17:16 22.4 °C 19.4 °C 1009.7 hPa Calm   1.6 km/h 83 % 0 mm
17:21 22.3 °C 19.5 °C 1010 hPa Calm   1.6 km/h 84 % 0 mm
17:26 22.2 °C 19.4 °C 1010 hPa SE 1.6 km/h 1.6 km/h 84 % 0 mm
17:31 22.1 °C 19.5 °C 1010 hPa Calm   1.6 km/h 85 % 0 mm
17:36 22 °C 19.4 °C 1010 hPa Calm   1.6 km/h 85 % 0 mm
17:41 21.9 °C 19.5 °C 1010 hPa Calm   1.6 km/h 86 % 0 mm
17:46 21.7 °C 19.3 °C 1010 hPa Calm   1.6 km/h 86 % 0 mm
17:51 21.6 °C 19.3 °C 1010 hPa Calm   1.6 km/h 87 % 0 mm
17:56 21.4 °C 19.1 °C 1010 hPa Calm   1.6 km/h 87 % 0 mm
18:01 21.2 °C 19.1 °C 1009.7 hPa Calm   1.6 km/h 88 % 0 mm
18:06 21.2 °C 19.3 °C 1009.7 hPa Calm   1.6 km/h 89 % 0 mm
18:11 21.1 °C 19.2 °C 1009.7 hPa Calm   1.6 km/h 89 % 0 mm
18:16 20.9 °C 19.2 °C 1009.7 hPa Calm   1.6 km/h 90 % 0 mm
18:21 20.9 °C 19.2 °C 1009.7 hPa Calm   1.6 km/h 90 % 0 mm
18:26 20.8 °C 19.3 °C 1010 hPa Calm   1.6 km/h 91 % 0 mm
18:31 20.8 °C 19.3 °C 1010 hPa Calm   3.2 km/h 91 % 0 mm
18:36 20.8 °C 19.3 °C 1010 hPa Calm   3.2 km/h 91 % 0 mm
18:41 20.7 °C 19.2 °C 1010 hPa Calm   3.2 km/h 91 % 0 mm
18:46 20.7 °C 19.2 °C 1010 hPa Calm   1.6 km/h 91 % 0 mm
18:51 20.7 °C 19.4 °C 1010 hPa SE 1.6 km/h 3.2 km/h 92 % 0 mm
18:56 20.6 °C 19.3 °C 1010 hPa Calm   3.2 km/h 92 % 0 mm
19:01 20.5 °C 19.2 °C 1010 hPa ESE 1.6 km/h 6.4 km/h 92 % 0 mm
19:06 20.6 °C 19.3 °C 1010 hPa Calm   6.4 km/h 92 % 0 mm
19:11 20.6 °C 19.3 °C 1010 hPa Calm   6.4 km/h 92 % 0 mm
19:16 20.5 °C 19.3 °C 1010 hPa ESE 1.6 km/h 6.4 km/h 93 % 0 mm
19:21 20.4 °C 19.2 °C 1010 hPa SSE 1.6 km/h 6.4 km/h 93 % 0 mm
19:26 20.4 °C 19.2 °C 1010 hPa Calm   6.4 km/h 93 % 0 mm
19:31 20.3 °C 19.1 °C 1010 hPa Calm   6.4 km/h 93 % 0 mm
19:36 20.3 °C 19.1 °C 1010 hPa SE 1.6 km/h 3.2 km/h 93 % 0 mm
19:41 20.2 °C 19 °C 1010 hPa ESE 1.6 km/h 4.8 km/h 93 % 0 mm
19:46 20.1 °C 19.1 °C 1010 hPa ESE 1.6 km/h 4.8 km/h 94 % 0 mm
19:51 20.1 °C 18.9 °C 1010 hPa Calm   4.8 km/h 93 % 0 mm
19:56 20 °C 19 °C 1010 hPa Calm   4.8 km/h 94 % 0 mm
20:01 19.9 °C 18.9 °C 1010 hPa Calm   4.8 km/h 94 % 0 mm
20:06 19.8 °C 18.8 °C 1010 hPa SE 1.6 km/h 4.8 km/h 94 % 0 mm
20:11 19.8 °C 18.8 °C 1010 hPa SSE 1.6 km/h 4.8 km/h 94 % 0 mm
20:16 19.7 °C 18.7 °C 1010 hPa SE 1.6 km/h 4.8 km/h 94 % 0 mm
20:21 19.7 °C 18.7 °C 1010 hPa ESE 1.6 km/h 6.4 km/h 94 % 0 mm
20:26 19.6 °C 18.6 °C 1010 hPa Calm   6.4 km/h 94 % 0 mm
20:31 19.6 °C 18.4 °C 1010 hPa Calm   6.4 km/h 93 % 0 mm
20:36 19.5 °C 18.5 °C 1010 hPa Calm   3.2 km/h 94 % 0 mm
20:41 19.4 °C 18.4 °C 1010 hPa Calm   3.2 km/h 94 % 0 mm
20:46 19.2 °C 18.2 °C 1010 hPa Calm   1.6 km/h 94 % 0 mm
20:51 19.2 °C 18.2 °C 1010 hPa Calm   1.6 km/h 94 % 0 mm
20:56 19.1 °C 18.1 °C 1010 hPa Calm   1.6 km/h 94 % 0 mm
21:01 19 °C 18 °C 1010 hPa Calm   1.6 km/h 94 % 0 mm
21:06 18.9 °C 17.9 °C 1010 hPa Calm   1.6 km/h 94 % 0 mm
21:11 18.8 °C 17.8 °C 1010 hPa Calm   1.6 km/h 94 % 0 mm
21:16 18.8 °C 18 °C 1010 hPa Calm   1.6 km/h 95 % 0 mm
21:21 18.7 °C 17.9 °C 1010 hPa Calm   1.6 km/h 95 % 0 mm
21:26 18.8 °C 18 °C 1010 hPa Calm   1.6 km/h 95 % 0 mm
21:31 18.7 °C 17.9 °C 1010 hPa Calm   1.6 km/h 95 % 0 mm
21:36 18.6 °C 17.8 °C 1010 hPa Calm   1.6 km/h 95 % 0 mm
21:41 18.7 °C 18 °C 1010 hPa Calm   1.6 km/h 96 % 0 mm
21:47 18.7 °C 18 °C 1010 hPa Calm   1.6 km/h 96 % 0 mm
21:52 18.6 °C 17.9 °C 1010 hPa Calm   1.6 km/h 96 % 0 mm
21:57 18.6 °C 17.9 °C 1010 hPa Calm   1.6 km/h 96 % 0 mm
22:02 18.5 °C 17.8 °C 1010 hPa Calm   1.6 km/h 96 % 0 mm
22:07 18.5 °C 17.8 °C 1010 hPa Calm     96 % 0 mm
22:12 18.6 °C 18.1 °C 1010 hPa Calm   3.2 km/h 97 % 0 mm
22:17 18.7 °C 18.2 °C 1010 hPa Calm   3.2 km/h 97 % 0 mm
22:22 18.8 °C 18.3 °C 1010 hPa Calm   3.2 km/h 97 % 0 mm
22:27 18.8 °C 18.3 °C 1010.4 hPa Calm   3.2 km/h 97 % 0 mm
22:32 18.9 °C 18.4 °C 1010.4 hPa ESE 3.2 km/h 3.2 km/h 97 % 0 mm
22:37 18.9 °C 18.4 °C 1010 hPa East 1.6 km/h 3.2 km/h 97 % 0 mm
22:42 18.9 °C 18.4 °C 1010.4 hPa Calm   3.2 km/h 97 % 0 mm
22:47 18.9 °C 18.4 °C 1010.4 hPa SE 3.2 km/h 3.2 km/h 97 % 0 mm
22:52 19 °C 18.5 °C 1010.4 hPa Calm   3.2 km/h 97 % 0 mm
22:57 19 °C 18.5 °C 1010.4 hPa Calm   3.2 km/h 97 % 0 mm
23:02 19 °C 18.5 °C 1010.4 hPa Calm   3.2 km/h 97 % 0 mm
23:07 19 °C 18.5 °C 1010.4 hPa ESE 1.6 km/h 3.2 km/h 97 % 0 mm
23:12 19 °C 18.5 °C 1010.4 hPa Calm   3.2 km/h 97 % 0 mm
23:17 19 °C 18.5 °C 1010.4 hPa ESE 1.6 km/h 3.2 km/h 97 % 0 mm
23:22 19 °C 18.5 °C 1010.4 hPa Calm   3.2 km/h 97 % 0 mm
23:27 19 °C 18.5 °C 1010.4 hPa Calm   3.2 km/h 97 % 0 mm
23:32 18.9 °C 18.4 °C 1010.4 hPa Calm   3.2 km/h 97 % 0 mm
23:37 19 °C 18.5 °C 1010.4 hPa Calm   3.2 km/h 97 % 0 mm
23:42 19 °C 18.5 °C 1010.4 hPa Calm   1.6 km/h 97 % 0 mm
23:47 19 °C 18.5 °C 1010.4 hPa Calm   1.6 km/h 97 % 0 mm
23:52 19 °C 18.5 °C 1010.4 hPa Calm   1.6 km/h 97 % 0 mm
23:57 19.1 °C 18.6 °C 1010.4 hPa Calm   1.6 km/h 97 % 0 mm
Spring, Texas: Villages of Bridgestone
Compliments of Weather Underground - 2.75 mb

Script developed by  Jim McMurry - jmcmurry@mwt.net Adapted for the template by  Wim van der Kuil - Leuven-Template.eu

You find our weather info also at:

UK Metoffice

WeatherCloud

Weather Underground

Mid-South Weather Network

AWEKAS

Citizen Weather Observer Program (CWOP)

HAMweather, WeatherForYou, PWS Weather

Equipment we use:

Weather-station
Davis Vantage Vue

Weather-program
Meteohub

Weather-server
Debian 7.9 x86 (Guest)

Provider
DreamHost

Davis Vantage Vue

Meteohub

Debian 7.9 x86 (Guest)

DreamHost